Total_Precipitation_Accumulation
1.71 2.18 2.82 3.49 4.27 5.40 6.08 6.23 5.98 5.29 4.78 4.37 4.12 3.85 3.60 3.32 2.84 2.44 2.15 2.02 1.91 1.85 2.07 1.91 1.95 1.82 1.86 1.91 1.96 2.21 2.31 2.11 2.28 2.63 2.44 2.12 1.87 1.87 1.78 1.72 1.81 1.83 1.88
1.59 2.18 2.95 3.75 4.41 4.97 5.34 5.44 5.06 4.32 3.83 3.59 3.52 3.26 3.07 2.75 2.54 2.30 2.25 1.94 1.85 1.84 1.74 1.94 1.77 1.70 1.91 1.88 1.95 2.17 2.17 1.93 2.08 2.48 2.63 2.36 2.25 1.87 1.36 1.53 1.63 1.68 1.94
1.79 2.54 3.34 4.08 4.43 4.46 4.24 3.95 3.77 3.39 3.27 3.23 3.04 2.83 2.79 2.53 2.36 2.15 2.06 1.76 1.59 1.58 1.63 1.62 1.53 1.64 1.56 1.76 1.91 2.00 2.20 2.18 1.95 1.95 2.36 2.33 2.29 2.06 1.56 1.32 1.40 1.66 1.91
1.93 2.62 3.16 3.39 3.55 3.48 3.19 3.01 2.93 2.86 2.80 2.72 2.63 2.34 2.21 2.19 2.04 1.94 1.95 1.84 1.62 1.57 1.55 1.50 1.60 1.63 1.50 1.78 1.53 1.68 2.02 2.18 1.99 1.94 1.86 1.92 2.10 2.15 2.00 1.69 1.44 1.56 1.65
1.49 1.70 1.90 2.07 2.21 2.23 2.38 2.46 2.59 2.72 2.63 2.56 2.55 2.47 2.19 2.15 2.12 2.11 2.20 2.07 1.85 1.63 1.40 1.47 1.68 1.73 1.60 1.63 1.62 1.81 1.82 1.90 1.93 1.90 1.86 2.02 2.07 1.91 1.97 1.97 1.82 1.70 1.43
0.94 1.04 1.13 1.25 1.48 1.54 1.74 1.95 2.10 2.25 2.42 2.45 2.29 2.21 2.16 2.20 2.24 2.19 2.01 1.82 1.69 1.58 1.45 1.56 1.82 1.80 1.76 1.72 1.69 1.70 1.73 1.91 2.04 2.00 1.88 1.95 2.03 2.02 2.13 1.94 1.87 1.89 1.64
0.76 0.90 1.02 1.12 1.33 1.27 1.35 1.58 1.66 1.69 1.85 1.90 1.86 1.92 2.07 2.12 2.00 1.89 1.81 1.65 1.40 1.38 1.46 1.53 1.74 1.75 1.75 1.67 1.83 1.85 1.77 1.89 1.97 1.97 1.92 1.83 1.75 1.88 2.06 2.11 1.95 1.94 1.86
0.67 0.78 0.78 0.86 0.98 0.95 1.08 1.23 1.33 1.41 1.47 1.58 1.70 1.67 1.82 1.83 1.74 1.81 1.68 1.54 1.33 1.22 1.25 1.36 1.43 1.51 1.56 1.53 1.90 1.79 1.82 1.91 1.83 1.74 2.07 1.97 1.71 1.87 2.00 2.21 2.41 2.29 2.18
0.55 0.62 0.56 0.57 0.69 0.79 0.92 1.04 1.12 1.25 1.28 1.42 1.50 1.47 1.57 1.66 1.71 1.71 1.60 1.42 1.43 1.28 1.31 1.37 1.55 1.67 1.70 1.73 1.96 1.90 1.87 2.00 1.82 1.81 1.98 1.94 1.88 1.87 1.85 2.20 2.52 2.66 2.48
0.48 0.51 0.51 0.46 0.53 0.68 0.94 1.02 1.03 1.16 1.20 1.29 1.31 1.19 1.36 1.48 1.63 1.58 1.49 1.45 1.48 1.42 1.53 1.57 1.69 1.77 1.72 1.71 1.89 1.88 1.95 2.03 1.93 1.93 2.00 1.95 1.93 2.02 1.95 2.09 2.33 2.54 2.73
0.52 0.49 0.49 0.48 0.46 0.57 0.78 0.84 0.98 1.10 1.16 1.23 1.33 1.39 1.39 1.32 1.44 1.46 1.44 1.49 1.53 1.49 1.56 1.66 1.77 1.75 1.78 1.87 1.98 1.84 1.89 2.02 2.22 2.13 2.12 2.18 2.28 2.25 2.16 2.22 2.30 2.44 2.71
0.42 0.44 0.49 0.53 0.49 0.50 0.60 0.74 0.92 1.08 1.14 1.20 1.33 1.42 1.55 1.51 1.45 1.43 1.46 1.51 1.63 1.70 1.69 1.77 1.82 1.68 1.70 1.89 1.94 1.91 1.95 2.01 2.07 2.27 2.50 2.44 2.45 2.40 2.24 2.33 2.29 2.35 2.64
0.53 0.52 0.57 0.62 0.65 0.63 0.64 0.75 0.90 1.07 1.19 1.28 1.36 1.50 1.57 1.48 1.42 1.53 1.62 1.65 1.80 1.96 2.05 2.05 1.88 1.78 1.75 1.82 1.92 2.02 2.04 2.07 2.15 2.31 2.40 2.43 2.58 2.46 2.36 2.29 2.24 2.33 2.50
0.62 0.57 0.55 0.60 0.71 0.85 0.87 0.93 1.17 1.18 1.18 1.37 1.51 1.59 1.62 1.56 1.53 1.62 1.74 1.77 1.85 2.02 2.17 2.12 2.02 1.97 1.87 1.75 1.72 1.77 1.86 2.03 2.20 2.25 2.18 2.26 2.49 2.54 2.53 2.35 2.30 2.40 2.53
0.61 0.52 0.51 0.57 0.69 0.83 0.90 1.01 1.09 1.27 1.32 1.50 1.65 1.70 1.80 1.83 1.86 1.96 1.98 1.91 1.91 1.94 2.11 2.16 2.16 2.10 1.94 1.71 1.75 1.88 1.89 2.07 2.10 2.05 1.94 1.92 2.13 2.38 2.46 2.24 2.24 2.36 2.39
0.61 0.61 0.65 0.68 0.71 0.77 0.86 0.93 1.02 1.23 1.43 1.71 2.02 2.05 2.07 2.07 2.15 2.32 2.39 2.29 2.24 2.33 2.36 2.29 2.23 2.14 1.78 1.88 1.90 1.88 1.94 2.08 2.10 2.05 1.97 1.83 1.81 1.83 1.97 2.08 2.20 2.33 2.29
0.78 0.80 0.90 0.89 0.86 0.87 0.91 1.00 1.11 1.30 1.58 1.87 2.12 2.25 2.30 2.32 2.39 2.48 2.50 2.44 2.53 2.69 2.71 2.60 2.42 2.26 2.16 2.07 1.83 1.78 1.70 1.77 1.83 1.90 1.90 1.61 1.45 1.56 1.49 1.66 1.82 1.94 2.02
0.80 0.87 1.01 1.06 1.02 1.01 1.08 1.22 1.40 1.63 1.91 2.12 2.25 2.35 2.36 2.38 2.41 2.45 2.37 2.40 2.53 2.61 2.64 2.58 2.45 2.33 2.24 2.09 1.73 1.65 1.46 1.51 1.55 1.61 1.62 1.57 1.49 1.47 1.53 1.54 1.53 1.51 1.58
0.87 0.94 1.04 1.16 1.22 1.25 1.35 1.43 1.57 1.78 2.01 2.17 2.19 2.18 2.27 2.35 2.38 2.39 2.43 2.47 2.47 2.35 2.25 2.21 2.22 2.19 2.21 2.13 1.79 1.60 1.41 1.51 1.54 1.57 1.60 1.63 1.56 1.69 1.58 1.51 1.55 1.56 1.57
0.90 0.99 1.02 1.09 1.21 1.33 1.36 1.46 1.65 1.86 2.06 2.21 2.23 2.19 2.26 2.35 2.39 2.45 2.50 2.46 2.36 2.27 2.20 2.10 2.11 2.10 2.08 2.11 1.75 1.57 1.45 1.54 1.56 1.61 1.62 1.62 1.51 1.53 1.41 1.34 1.48 1.48 1.50
0.99 0.99 1.06 1.11 1.16 1.29 1.39 1.50 1.64 1.78 1.92 2.07 2.17 2.26 2.39 2.46 2.48 2.52 2.48 2.41 2.29 2.29 2.27 2.18 2.10 2.07 2.03 2.06 1.78 1.58 1.39 1.53 1.72 1.71 1.65 1.63 1.55 1.26 1.20 1.18 1.19 1.24 1.30
1.05 1.06 1.13 1.26 1.33 1.41 1.46 1.55 1.56 1.65 1.81 1.86 1.98 2.03 2.15 2.27 2.28 2.36 2.30 2.31 2.26 2.19 2.12 2.02 1.92 1.88 1.90 1.81 1.69 1.49 1.34 1.39 1.54 1.66 1.67 1.67 1.53 1.24 1.13 1.03 1.01 1.02 0.99
1.24 1.19 1.17 1.25 1.33 1.43 1.53 1.62 1.60 1.57 1.62 1.72 1.85 1.95 2.02 2.18 2.24 2.26 2.19 2.12 2.07 1.98 1.89 1.80 1.72 1.73 1.76 1.71 1.50 1.30 1.21 1.24 1.31 1.46 1.63 1.53 1.34 1.17 1.02 0.96 0.92 0.88 0.83
1.07 1.12 1.14 1.20 1.38 1.37 1.43 1.54 1.61 1.60 1.64 1.72 1.75 1.84 1.91 2.01 2.19 2.21 2.08 1.96 1.84 1.76 1.74 1.70 1.71 1.76 1.78 1.68 1.48 1.26 1.12 1.15 1.21 1.28 1.36 1.36 1.33 1.27 1.15 1.04 0.93 0.84 0.89
0.94 0.96 1.01 1.05 1.14 1.17 1.22 1.31 1.42 1.48 1.46 1.43 1.40 1.42 1.55 1.72 1.90 1.94 1.89 1.72 1.62 1.70 1.73 1.69 1.67 1.61 1.55 1.61 1.53 1.33 1.25 1.27 1.31 1.26 1.27 1.30 1.39 1.42 1.41 1.37 1.27 1.19 1.17
0.79 0.84 0.87 0.90 0.94 1.01 1.11 1.22 1.39 1.52 1.52 1.41 1.31 1.29 1.30 1.40 1.60 1.81 1.88 1.74 1.53 1.56 1.50 1.44 1.39 1.36 1.33 1.33 1.33 1.26 1.20 1.25 1.25 1.15 1.26 1.42 1.51 1.58 1.58 1.57 1.46 1.31 1.19